Location: Danville Conservation Area
(38.8674°N, 91.5143°W)
Time: 03:25:21
(UTC-06:00)

Hubble Space Telescope - Visible Passes

Search period start: 01 December 2021 00:00
Search period end: 11 December 2021 00:00
Orbit: 534 x 538 km, 28.5° (Epoch: 30 November)

Date Brightness Start Highest point End Pass type
(mag) Time Alt. Az. Time Alt. Az. Time Alt. Az.
01 Dec 3.5 04:25:24 14° SSE 04:25:24 14° SSE 04:26:19 10° SE visible
01 Dec 3.2 06:02:05 10° SW 06:03:51 12° SSW 06:05:38 10° S visible
02 Dec 3.8 04:14:56 10° SE 04:14:56 10° SE 04:15:00 10° SE visible
02 Dec 3.3 05:51:35 10° SSW 05:52:35 11° SSW 05:53:35 10° S visible
